Wind_Speed
77 74 70 67 67 67 65 62 60 58 58 60 62 61 60 59 59 59 59 57 53 48 45 44 44 45 45 44 43 41 41 41 41 40 38 37 37 37 36 36 35 35 33 32 32 32 32 31 31 32 32 32 32 31 31 30 30 31 32 33 33 33 33 34 35 35 34 34 34 35 36 37 39 40 41 41 40 40 40 41 42 42 42 42 42 42
78 78 77 74 70 67 64 63 63 62 63 64 63 62 60 59 60 60 59 57 53 48 46 45 45 46 47 46 43 41 42 43 42 40 39 39 39 38 38 37 37 37 35 34 33 33 34 33 32 32 33 34 34 34 33 32 32 32 32 34 34 34 34 34 35 36 36 36 36 37 37 38 39 41 42 42 42 42 42 42 42 43 44 44 44 43
75 77 79 79 76 73 71 70 68 66 65 64 62 61 61 61 60 60 58 56 53 49 48 46 45 48 49 47 45 42 42 44 43 42 41 40 40 39 39 38 39 38 37 36 35 34 35 35 33 33 34 35 36 36 35 34 34 33 33 34 34 35 35 35 36 37 38 39 39 39 40 41 41 42 42 43 43 43 44 44 44 44 44 45 45 45
76 77 78 79 78 76 74 71 68 66 65 63 63 64 64 63 61 59 57 56 54 51 49 47 46 49 51 49 46 43 42 44 44 43 43 41 40 39 39 40 40 40 40 39 37 36 37 36 35 35 36 36 37 37 37 36 35 35 35 34 34 34 34 35 37 38 39 40 41 42 42 43 43 43 43 44 44 44 45 46 45 45 45 46 46 46
77 77 76 75 75 74 71 69 68 67 66 66 67 67 66 65 62 59 58 58 56 52 50 50 48 50 52 49 47 45 42 43 43 42 42 41 40 40 40 42 42 42 43 42 40 39 39 39 37 37 38 38 38 38 37 37 37 37 36 35 34 34 35 36 37 38 39 40 41 43 44 44 44 44 44 44 45 45 46 47 47 46 46 46 47 47
78 77 75 74 74 74 73 72 73 73 72 71 71 70 69 67 64 61 60 60 58 54 53 53 49 50 52 49 48 46 42 42 42 42 43 42 41 41 42 44 44 44 45 44 42 42 42 41 39 39 40 40 41 40 39 39 38 37 36 35 36 36 37 37 38 38 39 40 41 42 44 45 45 46 45 45 45 46 46 47 47 47 46 46 47 48
78 77 77 76 77 78 78 77 77 76 75 74 73 72 71 70 67 64 63 62 60 57 56 56 51 50 53 52 50 47 43 43 43 44 46 45 44 44 44 46 46 47 46 45 45 45 44 43 42 41 41 42 42 42 42 41 40 38 37 37 38 39 39 40 40 40 40 40 41 41 43 44 45 46 46 46 46 46 47 47 48 47 46 46 46 47
78 78 78 79 79 79 79 78 77 76 75 74 73 73 72 71 68 65 64 63 61 59 59 58 54 51 52 55 54 49 45 46 47 48 48 47 46 46 46 48 49 49 48 47 47 46 45 45 45 44 43 43 44 44 44 43 42 41 40 40 40 41 42 43 42 42 41 42 42 41 42 43 44 45 46 47 47 47 47 48 48 48 47 46 46 47
80 80 80 80 80 79 77 77 76 75 74 72 72 72 71 70 68 66 65 64 64 62 60 59 58 52 50 56 57 49 47 49 50 50 48 47 49 48 48 50 51 51 50 50 49 47 46 47 47 46 46 45 45 45 45 45 44 43 42 42 42 43 44 45 44 43 42 42 42 42 41 42 42 43 45 46 48 49 49 49 49 49 49 48 47 48
82 82 81 81 81 79 78 78 76 76 74 73 73 72 72 72 71 71 70 70 69 66 62 62 62 54 48 54 57 51 49 51 52 52 51 51 52 51 51 51 52 53 54 53 51 49 48 47 48 48 48 48 48 47 47 46 46 44 44 44 44 46 47 47 46 44 43 43 43 43 42 42 42 42 43 45 47 49 49 50 50 49 49 48 47 48
83 83 83 82 82 82 81 80 79 79 78 78 77 77 78 79 79 79 77 76 74 68 64 64 64 57 47 48 56 56 53 53 54 55 54 54 54 53 53 53 54 55 55 55 54 52 50 49 49 49 50 51 51 51 49 48 47 46 45 45 46 48 48 48 47 45 45 44 44 44 44 44 44 44 44 44 46 47 49 51 51 51 49 48 48 47
86 86 85 85 85 84 84 84 83 83 82 82 82 82 84 84 84 83 81 79 75 67 64 65 65 58 44 44 55 60 57 55 56 58 57 56 56 56 56 57 57 56 55 56 55 55 54 52 51 51 52 54 54 54 52 50 49 48 46 47 48 49 50 50 49 48 48 47 46 46 46 46 47 46 45 45 46 47 48 50 51 52 52 51 50 49
89 89 89 89 88 87 87 87 86 85 85 85 85 85 86 86 85 84 81 79 74 69 67 67 66 57 43 44 53 59 61 59 58 59 59 58 59 60 59 59 59 59 57 57 56 56 56 55 54 54 55 56 57 56 54 52 51 50 49 48 49 50 51 52 51 51 50 49 49 49 49 49 49 48 47 47 47 48 49 50 51 52 53 53 53 53
90 90 90 89 89 88 88 88 88 88 88 88 88 87 87 86 85 82 81 79 75 71 69 68 67 58 46 47 50 55 62 64 62 62 62 62 62 62 62 61 62 61 60 58 58 58 58 57 56 57 57 58 59 58 56 55 54 52 51 51 50 52 53 54 54 54 53 52 52 51 51 52 52 51 50 50 50 50 51 51 52 53 54 55 55 56
90 89 88 88 88 88 88 89 90 90 90 89 88 88 86 85 83 81 81 80 77 74 72 70 67 59 51 51 52 54 60 65 66 65 65 65 65 64 64 65 65 64 62 61 60 59 59 59 59 59 60 60 60 60 59 58 56 55 54 54 53 54 55 56 56 56 56 56 55 54 54 54 55 56 55 55 55 55 54 54 54 55 56 56 57 57
90 89 88 89 89 88 89 90 91 91 90 89 89 87 84 83 83 84 83 81 79 77 74 70 65 58 55 55 55 55 58 62 65 65 66 67 68 67 67 67 67 66 65 63 62 62 62 61 61 61 61 61 62 62 62 61 60 59 58 57 56 56 57 58 59 59 58 58 58 57 57 58 59 60 61 61 60 60 59 58 57 57 58 58 59 59
90 89 89 89 88 88 89 90 90 90 89 88 87 85 83 83 85 86 83 81 80 78 73 69 64 59 58 56 56 57 58 60 62 64 67 69 70 70 70 69 68 67 67 67 66 66 66 65 64 63 63 64 64 64 64 63 62 62 61 59 58 58 59 61 61 61 60 60 60 61 62 63 64 65 65 65 66 66 64 62 60 60 61 61 62 62
90 90 89 89 88 88 88 89 89 89 88 87 84 82 83 84 84 85 83 81 80 78 72 68 65 62 60 57 57 59 59 60 62 64 67 70 70 71 71 70 70 69 69 70 70 70 70 69 69 68 67 67 67 66 66 65 64 64 63 63 61 61 62 63 63 63 62 63 64 65 65 66 67 68 69 70 70 70 68 66 64 63 64 65 66 66
90 90 89 88 88 88 89 90 89 87 86 85 83 83 83 84 83 84 84 81 80 80 74 68 66 64 60 57 57 60 62 62 63 64 66 68 70 71 71 72 72 71 72 72 74 75 74 74 73 72 71 70 69 69 68 67 67 66 66 66 65 64 65 65 65 65 65 66 67 67 68 69 70 71 73 74 74 74 71 69 67 67 67 68 69 70
94 92 91 89 88 89 90 89 88 86 85 85 85 85 84 85 85 84 85 83 82 82 77 71 67 60 56 57 58 60 63 63 64 65 66 67 69 70 72 73 73 73 74 76 77 78 78 77 77 76 74 73 72 71 70 70 69 69 69 69 68 67 67 67 66 66 68 69 69 69 70 71 72 74 76 77 77 76 74 72 71 70 70 71 71 72
98 96 93 91 90 90 88 87 87 88 89 88 87 87 86 86 86 86 87 86 84 84 80 76 69 59 56 60 60 60 63 63 64 66 67 67 69 70 72 73 75 76 78 80 80 80 79 79 79 78 77 76 75 74 73 73 72 72 72 72 71 70 69 68 68 68 69 71 71 72 72 72 74 76 78 80 80 79 77 75 74 72 72 73 73 73
101 99 97 95 92 90 88 88 90 91 92 91 89 88 87 87 89 89 89 88 87 86 84 83 78 65 60 64 63 64 66 65 66 68 69 70 71 72 74 75 77 79 81 82 82 81 81 81 81 81 80 79 78 77 76 76 76 75 75 75 74 72 71 71 70 70 71 72 73 73 73 74 76 78 80 83 83 81 79 78 77 74 73 74 75 76
105 104 101 99 96 93 92 93 93 93 94 93 92 90 89 90 91 91 91 90 91 91 89 90 85 69 61 64 66 67 69 70 71 71 72 74 74 75 77 78 79 80 81 82 82 83 84 84 85 84 83 82 81 81 80 80 79 79 77 76 76 75 75 74 74 74 74 74 74 75 75 76 78 79 82 84 84 83 82 80 78 76 76 77 78 78
108 107 105 102 100 98 97 97 96 96 96 96 94 93 92 93 93 94 95 95 96 95 93 95 91 75 63 64 66 68 72 75 76 76 76 77 78 78 79 79 80 80 81 82 83 85 86 87 87 86 86 85 85 84 84 83 82 81 80 79 78 78 78 78 78 78 78 77 77 77 77 79 80 81 83 84 86 86 85 82 80 79 79 80 80 80
110 110 109 107 105 103 101 100 99 98 98 98 97 97 97 97 98 99 100 101 101 99 97 99 97 83 71 68 68 71 76 79 81 80 79 79 79 79 80 81 81 81 81 83 85 88 89 89 89 88 88 88 87 87 86 85 84 83 82 81 81 81 81 81 81 81 80 80 79 80 80 82 83 84 85 86 88 88 87 84 83 83 83 83 83 83
112 112 112 110 109 106 104 103 102 101 102 102 101 101 101 102 104 104 105 106 105 101 99 101 99 88 77 73 72 74 77 80 82 82 81 81 81 81 82 84 85 85 85 86 87 89 90 91 91 90 90 89 88 88 88 87 86 85 85 84 84 84 84 85 85 84 82 81 81 81 82 84 86 86 87 89 90 89 88 87 86 86 86 85 84 85
115 114 114 112 110 108 106 106 105 104 105 105 103 103 104 105 107 108 109 109 106 103 103 104 101 94 85 79 77 77 79 81 83 83 84 84 84 84 85 86 88 88 89 89 89 89 90 91 92 92 92 91 90 90 89 89 88 88 88 88 88 88 87 87 87 86 85 84 83 84 84 86 87 88 89 91 91 90 89 89 88 87 87 86 86 87
116 116 116 115 113 111 109 109 107 106 106 107 106 106 106 107 108 110 110 109 107 108 108 105 104 103 96 86 80 78 80 82 83 83 84 85 86 87 88 89 90 91 92 92 91 91 91 91 91 92 93 93 94 94 93 92 92 91 91 91 91 91 90 89 89 88 88 87 87 86 87 87 89 90 91 92 92 92 91 90 89 89 88 88 89 91
117 117 117 117 116 114 113 112 110 108 108 109 109 109 109 110 110 110 109 107 108 110 110 106 105 105 100 90 82 80 81 84 84 84 86 88 89 90 91 93 93 94 94 94 94 94 94 94 93 94 95 95 96 96 96 96 95 94 93 92 92 92 92 92 92 91 91 91 90 90 90 89 90 91 92 93 93 93 92 91 92 92 93 93 94 94
120 119 119 120 119 118 117 116 114 112 111 111 110 110 111 111 110 109 107 106 107 109 109 106 104 104 100 93 87 85 86 89 89 89 89 89 91 94 95 96 96 96 96 96 97 98 98 97 97 97 97 96 96 97 98 98 98 97 96 95 94 94 94 94 93 92 92 92 92 93 92 91 92 93 94 95 95 94 94 95 96 97 97 97 96 95
123 122 122 122 122 121 119 117 117 116 115 114 113 112 111 110 107 106 105 105 107 109 109 107 107 104 99 95 93 91 90 93 94 92 90 90 92 97 99 100 99 98 98 98 99 100 99 99 99 98 98 98 97 97 98 98 99 99 99 98 98 98 97 96 95 94 94 93 94 95 94 94 95 95 96 97 97 98 98 99 99 98 98 96 94 93
123 123 123 124 124 122 120 119 120 120 121 120 118 114 110 108 106 105 106 108 110 111 111 111 110 105 98 98 100 98 95 95 95 95 94 93 95 98 100 100 99 99 99 100 100 100 100 100 100 100 100 99 98 98 98 98 99 99 100 100 101 101 101 99 98 97 97 97 97 97 97 97 97 98 99 100 101 101 101 100 99 97 96 95 93 92
123 123 123 124 124 122 121 121 123 126 127 125 120 114 112 111 112 111 110 110 110 111 112 113 111 108 103 102 103 102 99 98 98 97 96 96 97 99 100 99 98 100 101 101 100 100 99 100 100 100 101 101 101 100 100 100 100 101 101 102 102 103 102 102 102 101 101 101 101 100 100 100 101 102 102 103 102 102 101 100 98 96 94 93 91 90
122 122 123 124 124 122 121 122 125 128 128 124 119 116 116 117 118 117 116 114 113 114 116 116 114 111 109 107 105 104 104 102 101 99 97 97 99 100 100 99 99 101 102 102 101 101 101 102 102 102 103 103 103 103 103 104 103 103 103 103 104 104 105 105 104 104 104 104 104 104 105 105 105 104 104 104 103 102 101 99 96 94 92 91 90 89
122 121 121 122 122 121 121 123 127 128 126 121 118 117 118 119 120 120 119 119 119 120 121 122 120 117 115 112 110 109 108 106 105 102 100 100 101 100 100 100 100 101 102 103 103 103 104 104 104 104 104 105 105 105 105 105 105 105 105 105 106 106 106 106 106 106 106 107 107 107 107 107 106 105 104 103 101 100 98 96 94 92 91 89 88 87
120 120 120 121 121 121 121 122 124 125 123 119 116 115 115 116 119 121 122 122 122 123 125 125 124 123 120 118 116 114 112 111 109 107 106 106 105 104 103 102 102 102 103 104 105 105 106 105 105 104 104 104 104 105 105 106 106 106 106 107 107 108 108 109 109 109 109 109 109 108 108 107 105 104 102 100 98 96 94 93 91 89 88 87 87 87
117 118 118 120 121 122 121 121 121 121 119 115 110 108 109 113 118 122 124 124 123 124 125 125 125 124 123 121 120 118 116 115 113 112 113 112 110 109 108 107 107 107 106 106 107 107 107 107 107 106 105 105 105 106 107 107 108 108 109 109 110 110 111 111 111 111 111 110 109 108 106 105 103 100 98 96 95 93 92 91 90 89 88 88 88 89
113 114 115 116 118 119 119 119 119 119 115 108 102 101 105 111 116 119 122 122 122 122 123 123 123 123 123 122 121 120 119 118 115 114 115 115 113 112 111 111 111 111 111 111 110 110 110 111 111 111 110 109 109 110 110 110 110 111 111 111 111 111 111 110 110 110 109 108 106 105 103 101 99 97 95 93 92 92 91 91 91 91 91 91 91 92
109 110 111 113 113 114 114 115 116 115 110 103 99 100 105 110 113 117 119 120 119 118 118 119 120 120 120 120 120 120 119 118 116 115 115 115 114 113 112 112 112 113 113 113 113 112 112 112 112 113 112 111 111 111 111 111 110 110 109 109 109 108 107 106 106 105 104 103 102 100 99 97 95 94 93 92 92 92 92 93 93 94 94 94 94 95
106 107 108 109 109 109 109 111 112 110 105 98 95 98 103 108 112 115 117 117 114 113 114 115 117 117 118 118 118 118 117 116 114 113 113 112 112 111 110 110 109 109 110 110 111 111 110 110 110 110 110 109 109 108 108 107 106 106 106 105 104 103 102 101 100 99 98 98 97 96 95 94 94 93 93 93 93 94 94 95 96 97 97 98 98 99
104 105 106 106 106 105 106 108 109 107 101 96 93 95 99 105 109 112 112 111 109 108 109 111 112 114 115 116 116 116 115 115 113 111 110 110 109 108 108 108 107 107 107 107 108 108 108 108 107 107 107 107 106 106 105 104 103 102 102 101 100 99 98 96 95 95 94 94 94 94 95 94 95 95 95 96 96 96 97 98 99 100 101 103 103 104
105 106 106 106 106 105 105 106 107 104 99 94 93 95 98 104 107 108 108 106 105 104 105 106 107 108 109 109 109 109 109 109 109 107 106 105 104 103 103 103 103 103 104 104 104 104 104 104 104 103 103 103 102 101 101 101 99 98 97 96 95 95 94 94 94 93 93 94 94 96 97 97 98 98 98 99 99 100 101 102 103 105 107 108 109 109
108 109 109 108 107 107 107 107 107 102 96 93 94 97 100 103 105 106 106 105 104 104 104 104 105 106 106 105 105 104 103 103 102 102 100 98 97 97 96 96 96 96 97 97 98 98 99 99 99 99 99 98 98 97 97 97 97 96 95 95 94 94 95 95 95 95 95 96 96 97 98 99 100 101 102 103 104 105 106 108 109 111 112 113 113 113
112 112 111 109 109 110 111 110 108 105 100 98 97 98 100 103 104 106 107 107 106 106 105 105 106 107 107 106 106 105 104 102 102 101 100 99 98 97 96 96 95 94 94 95 95 95 95 96 96 96 97 97 97 97 97 97 97 97 98 98 98 98 98 98 99 99 99 100 100 101 102 104 105 106 108 109 110 112 113 114 115 116 117 117 117 116
114 114 114 113 114 115 115 113 111 110 108 105 104 103 105 106 108 109 110 110 109 108 107 106 107 107 108 108 107 106 105 105 104 104 104 103 102 100 99 98 98 98 97 97 97 98 98 98 98 98 98 99 100 100 101 101 101 102 102 103 104 104 105 105 106 106 106 107 108 108 109 110 112 113 114 116 116 117 118 119 119 120 120 119 119 118
119 118 118 118 118 119 118 117 115 115 114 113 112 111 112 113 114 114 115 114 114 113 112 111 110 110 110 110 110 109 108 107 107 107 107 106 105 104 104 104 104 105 105 105 105 105 105 105 105 104 104 105 105 106 106 107 107 108 109 110 110 111 112 112 113 113 113 114 114 115 116 116 117 118 119 120 120 121 122 122 123 123 122 121 121 120
124 123 123 123 122 122 122 120 119 120 120 120 119 118 118 118 119 120 120 120 119 118 118 117 117 116 116 116 116 116 115 114 113 113 112 112 112 111 111 112 112 113 113 113 113 113 113 112 112 111 111 111 111 112 112 113 113 114 115 115 116 116 117 118 118 118 118 119 119 120 120 121 121 122 122 123 124 124 125 125 125 125 123 122 121 120
127 127 127 126 126 125 125 124 124 124 125 125 125 124 123 123 124 124 124 124 124 123 122 122 122 122 122 122 123 123 123 122 121 121 120 119 119 119 119 119 119 119 119 120 120 120 120 119 119 118 117 117 117 117 117 117 118 119 119 120 120 120 121 121 122 122 122 123 123 123 123 123 124 124 124 125 125 125 125 125 125 124 123 121 120 119
131 131 130 130 130 130 129 130 130 130 131 130 130 129 128 128 129 129 129 129 129 128 128 127 127 127 127 127 128 128 128 128 128 128 127 126 126 126 126 126 125 124 124 125 126 126 126 126 125 124 123 123 123 123 122 122 123 123 123 123 123 123 123 123 124 124 125 125 125 125 125 125 124 124 124 124 124 124 125 125 125 123 122 121 119 119
136 136 135 135 135 135 135 136 137 137 137 136 134 133 133 133 133 133 133 134 134 133 133 132 132 132 132 132 132 132 132 132 133 133 132 131 131 131 131 131 130 130 130 130 130 130 131 130 130 129 129 128 128 128 127 126 126 125 125 124 123 123 123 123 123 124 124 125 125 125 124 123 123 122 123 124 125 125 126 125 124 123 121 120 119 118
141 141 141 142 142 142 141 141 142 142 142 141 140 140 139 139 138 138 138 138 138 138 138 137 136 136 136 137 138 138 138 138 138 137 137 136 135 135 134 134 133 133 133 133 133 133 133 133 133 132 132 131 131 130 128 127 126 125 124 123 122 122 122 122 122 122 122 122 122 122 121 121 121 122 124 125 126 125 125 125 124 121 119 118 117 116
Wind_Direction
242 243 246 247 246 245 244 244 246 249 252 255 256 258 261 263 264 264 264 263 263 262 264 268 272 275 278 281 285 287 287 287 290 292 293 293 296 299 301 304 305 306 307 307 306 303 298 294 293 293 293 292 291 291 292 292 293 294 295 295 294 294 295 295 295 294 294 293 291 291 291 291 292 292 292 291 290 289 289 290 290 290 289 289 289 289
242 243 244 245 245 246 247 248 251 253 255 256 257 259 260 261 262 263 263 263 262 260 262 266 270 274 278 281 283 283 284 286 289 288 288 290 293 295 298 300 301 302 305 306 306 304 299 295 293 292 291 291 290 290 290 291 292 293 293 294 294 295 296 296 297 296 296 295 294 293 292 292 292 292 292 293 292 291 291 290 290 290 290 290 289 289
242 242 243 244 246 248 249 251 252 253 255 256 258 259 260 260 261 262 262 261 259 258 261 265 270 274 277 279 280 281 282 284 285 284 286 289 290 292 295 296 298 300 302 305 305 304 300 297 295 292 290 289 289 289 290 290 290 291 292 293 294 295 297 297 298 298 297 297 297 296 294 293 292 292 292 293 293 293 292 291 290 290 290 290 290 290
242 242 243 244 245 248 249 250 251 252 254 256 258 259 260 260 260 260 260 258 256 258 263 267 270 272 276 278 279 279 279 280 281 283 285 286 287 289 291 293 295 298 300 303 304 302 300 299 297 293 290 288 288 288 289 290 290 291 292 292 293 295 297 298 298 298 298 298 298 297 296 295 294 293 292 292 293 293 293 292 292 291 291 291 290 290
241 242 243 244 245 246 247 248 250 252 254 256 258 259 260 260 260 258 257 256 257 260 265 268 269 272 275 276 276 276 275 276 279 281 282 283 284 286 288 291 293 296 299 302 302 301 300 300 298 294 291 289 288 288 289 289 289 290 291 292 292 294 296 296 296 296 296 297 297 298 298 297 296 294 293 292 292 292 292 292 292 292 292 291 291 290
240 241 242 243 244 246 247 249 251 253 255 257 258 259 260 260 259 257 255 256 259 262 265 267 269 271 273 273 271 272 272 273 277 278 279 280 282 283 286 289 291 294 297 298 299 299 299 298 296 294 292 291 291 290 290 289 289 289 290 291 292 293 294 294 294 294 294 294 296 297 298 297 297 296 295 293 293 292 291 291 292 292 292 292 291 291
240 241 242 243 245 246 248 250 253 255 256 257 259 259 259 259 257 255 254 257 260 263 265 268 269 269 270 270 268 269 270 272 273 274 276 278 280 282 285 287 289 292 293 295 296 296 296 295 295 294 293 292 292 292 291 290 290 290 291 291 292 293 293 292 292 292 292 292 294 296 297 297 297 297 296 294 293 292 292 292 291 292 292 293 293 293
241 242 243 244 246 247 249 251 253 254 255 256 256 256 256 255 254 253 254 257 260 263 266 268 268 266 266 267 268 268 270 271 271 271 274 277 279 281 283 285 288 289 290 292 293 292 292 293 295 295 294 292 291 291 291 291 291 291 291 291 292 292 292 292 292 292 292 292 294 295 296 297 297 297 296 295 294 293 293 293 293 294 294 295 295 295
241 243 244 246 247 248 249 250 251 252 253 253 253 253 253 253 253 254 256 260 262 264 266 267 267 264 263 265 268 268 268 269 270 271 273 275 277 279 281 283 286 287 288 289 289 288 289 292 294 295 295 292 290 290 290 290 290 291 292 292 292 291 291 291 291 292 292 293 294 294 295 296 296 297 297 296 296 296 296 295 295 296 297 297 297 296
242 243 245 246 247 248 249 250 251 251 252 252 252 253 254 255 256 258 260 262 263 265 266 266 266 263 259 263 269 269 266 266 269 271 273 274 275 277 279 281 282 284 287 287 287 286 287 290 292 293 293 291 290 289 289 289 290 291 292 292 291 290 290 290 291 292 293 293 293 293 294 294 295 295 296 297 297 298 298 298 298 298 298 298 298 297
243 244 245 246 248 249 250 251 251 251 252 252 253 254 255 257 259 260 261 262 264 265 264 264 263 261 259 261 266 268 265 266 269 271 272 273 275 276 277 278 280 282 284 285 285 286 287 289 290 290 290 289 288 288 288 288 289 290 291 290 290 289 289 290 291 292 292 292 292 293 295 295 296 296 297 298 298 298 299 299 299 299 298 298 298 297
243 244 245 246 247 249 250 250 250 251 252 253 254 255 257 258 259 260 261 261 262 262 261 261 261 262 259 255 260 267 267 266 268 271 272 273 274 275 277 278 280 280 280 282 284 286 287 288 288 288 288 288 288 287 288 289 289 289 290 289 289 289 290 291 292 292 292 292 293 294 295 296 297 297 297 298 299 299 299 299 300 300 299 298 297 296
243 244 245 246 247 249 250 250 251 252 253 253 255 255 256 258 259 260 261 261 261 260 259 260 260 261 257 249 257 268 269 266 267 269 271 273 274 276 277 278 278 278 279 281 282 284 285 286 286 286 287 287 286 287 288 288 288 289 289 289 290 290 291 292 292 292 293 293 293 295 296 298 298 296 295 296 297 298 298 298 299 299 299 299 298 297
243 245 246 247 248 249 250 251 252 252 252 253 254 255 256 258 259 260 261 261 260 258 257 257 258 259 255 249 254 263 267 268 269 270 273 274 275 275 276 276 276 278 279 281 281 282 283 283 284 285 285 285 286 287 288 287 288 289 289 290 291 291 291 292 293 294 294 293 294 296 298 299 299 296 294 293 293 294 295 295 296 297 298 298 298 298
244 245 246 247 248 248 249 250 250 251 252 253 254 255 256 257 258 258 258 258 258 256 256 256 257 258 254 251 253 258 262 266 269 272 275 275 274 273 274 275 277 279 281 280 280 280 280 280 281 283 284 285 285 286 286 286 288 289 290 291 291 291 292 293 294 294 294 295 296 299 300 300 299 297 295 294 293 293 292 293 294 296 297 297 297 297
242 243 244 245 246 247 247 248 249 250 251 252 253 254 255 255 256 256 256 257 257 257 257 257 258 257 254 253 255 256 257 260 265 271 273 273 273 274 275 277 279 281 281 279 278 277 278 279 280 281 282 283 283 284 285 287 288 289 290 291 292 292 293 293 293 293 294 296 298 300 300 300 299 297 296 295 294 293 292 292 293 294 295 295 295 295
241 241 242 243 244 245 246 247 249 250 251 252 253 254 254 254 255 256 256 257 257 258 258 258 257 255 253 254 255 255 254 257 262 267 268 270 272 275 277 279 280 280 279 277 277 277 278 279 279 280 280 281 282 283 285 286 288 289 290 291 291 292 291 291 291 293 295 298 299 300 300 299 298 297 296 295 294 293 292 292 293 294 294 294 293 293
240 240 240 241 243 244 245 247 248 249 250 251 252 252 252 253 254 256 256 256 256 257 256 256 256 254 253 255 256 256 256 256 258 262 265 268 272 275 277 277 277 276 275 276 277 278 279 280 280 281 281 282 283 284 285 286 288 289 289 290 290 289 289 290 292 294 296 297 298 297 297 296 296 295 294 294 293 292 292 293 294 294 294 294 293 293
238 239 239 240 241 242 244 245 247 248 250 251 251 251 251 252 253 254 255 255 256 256 256 255 255 256 256 257 255 255 256 256 257 258 261 266 270 273 274 274 274 274 273 274 276 277 279 280 281 282 282 283 284 285 286 287 288 288 288 288 288 288 289 290 292 295 295 295 294 294 294 294 293 293 293 292 292 292 293 295 295 295 294 294 294 294
238 238 239 239 240 242 243 245 247 248 249 250 250 250 251 252 253 254 256 256 257 257 257 255 255 258 258 256 254 254 254 255 256 256 259 263 266 269 270 271 272 272 272 273 275 277 279 281 281 282 283 284 285 286 286 287 287 287 287 287 287 288 289 291 292 293 292 291 291 291 291 292 292 292 292 291 292 293 295 295 295 296 296 296 296 295
239 239 239 240 241 242 244 245 247 247 247 248 250 251 252 253 254 255 256 257 258 258 258 257 256 256 256 255 255 255 255 254 254 256 258 260 262 264 265 267 268 269 271 273 275 277 278 279 280 281 283 284 284 285 284 284 284 284 284 285 286 288 289 290 290 289 288 288 289 289 290 291 291 291 291 292 292 294 295 296 295 296 296 296 295 295
241 241 240 241 241 242 244 245 246 247 248 249 250 251 253 254 255 256 256 257 258 258 259 258 257 256 256 256 255 256 256 255 254 255 257 258 259 260 261 263 265 268 271 273 276 276 276 277 278 280 281 282 282 282 282 282 282 283 284 285 287 288 288 288 287 286 286 286 287 288 289 290 290 291 291 291 292 293 294 294 294 295 295 295 295 295
243 242 242 242 242 243 244 245 246 248 249 250 250 251 253 254 255 257 257 257 257 257 258 259 259 257 256 256 255 256 257 257 256 255 256 257 258 258 259 261 264 267 269 272 273 274 275 276 278 279 280 280 281 281 281 282 282 283 285 286 287 287 286 286 286 286 286 286 287 289 290 291 291 291 291 291 291 291 291 292 294 295 295 294 294 295
245 245 244 244 244 244 245 246 247 249 250 252 253 253 253 254 255 256 257 257 257 258 259 260 261 259 255 253 254 256 259 260 259 258 257 257 259 260 261 262 264 266 268 270 270 271 272 274 276 277 278 279 279 280 281 282 282 283 284 285 285 285 284 285 285 286 287 288 289 291 291 291 290 290 289 289 289 290 291 293 294 295 295 295 295 295
246 246 246 246 245 246 246 248 249 250 252 253 254 255 255 255 255 256 257 258 258 259 260 262 263 262 257 254 254 257 261 262 262 260 259 259 259 260 262 264 265 265 265 266 268 270 272 274 275 275 276 276 277 278 279 280 281 282 282 282 282 283 283 284 285 286 288 289 290 291 290 289 289 289 288 288 288 290 292 294 295 295 295 295 296 296
247 247 247 247 247 247 248 249 250 251 252 253 254 255 256 257 257 257 258 258 259 261 262 263 264 263 260 258 258 258 259 260 261 261 261 261 261 262 264 265 265 265 264 265 267 270 272 273 274 274 274 275 275 277 278 279 280 280 280 280 281 282 283 284 285 287 288 288 288 288 288 288 287 287 288 288 289 291 293 294 295 295 295 296 296 295
248 248 248 249 249 249 249 250 250 251 252 253 254 256 257 258 258 259 259 260 261 262 262 263 264 263 261 260 260 260 259 259 260 261 262 263 264 264 265 264 265 266 267 268 268 269 269 270 271 272 273 274 275 276 277 278 278 278 279 280 281 282 284 285 285 286 286 286 286 286 286 286 287 288 288 289 290 292 293 294 294 295 295 295 295 294
249 250 250 250 250 250 250 251 251 251 252 253 254 255 256 257 258 259 260 262 263 263 263 264 265 265 264 263 261 261 261 261 261 261 261 262 263 264 264 264 265 267 268 269 268 267 267 267 269 270 272 275 276 277 277 277 277 278 279 281 282 283 284 284 284 285 286 286 287 287 287 287 287 288 288 289 290 292 293 293 294 293 293 293 293 293
250 250 251 251 251 251 251 251 251 252 252 253 254 255 256 257 258 260 261 263 264 264 265 265 266 266 266 265 262 260 259 260 260 260 260 262 263 263 264 265 266 267 267 268 268 267 267 268 270 271 274 275 277 277 278 278 279 280 281 281 282 283 283 283 284 286 287 287 287 287 287 287 288 288 288 289 290 291 292 292 292 292 293 293 293 293
249 250 251 251 252 252 252 252 253 253 253 254 254 255 256 257 258 260 262 263 264 265 265 265 265 265 266 265 262 259 258 259 259 260 260 262 263 264 264 264 265 266 266 267 268 269 270 272 273 274 275 275 276 276 277 279 280 281 281 282 282 282 282 283 284 285 285 286 286 286 287 287 288 288 289 289 290 290 291 291 291 292 292 293 293 293
250 250 251 252 252 253 253 254 254 254 254 253 254 254 256 257 259 261 262 262 263 263 264 264 264 264 265 265 263 260 259 260 260 260 260 260 262 264 265 266 266 267 267 268 269 270 272 273 274 274 274 274 275 276 277 279 280 281 282 282 282 282 282 283 283 283 284 284 285 285 286 287 287 288 288 289 290 290 291 291 292 292 293 293 293 292
250 251 252 252 253 253 254 255 255 255 254 253 253 254 256 258 259 260 260 261 261 262 263 264 264 264 263 262 262 262 261 261 261 261 261 261 263 264 265 266 267 268 268 269 270 271 273 274 274 275 275 275 275 276 277 278 278 279 280 281 282 282 283 283 284 284 284 285 285 286 286 287 287 288 288 289 290 291 291 291 292 292 292 292 291 291
251 252 253 253 254 254 255 255 255 256 255 255 255 256 257 257 257 257 258 260 261 263 263 263 264 263 262 261 262 263 262 261 261 262 263 264 264 265 265 266 267 268 269 269 270 271 272 273 273 274 274 275 275 276 276 276 277 278 279 279 280 281 282 283 284 285 285 286 286 286 287 287 288 288 289 290 290 290 291 291 291 291 291 290 290 290
251 252 253 254 255 255 256 256 256 256 257 257 258 258 257 257 257 257 258 258 259 261 261 262 262 262 262 262 262 263 263 263 264 264 265 266 265 265 266 267 267 267 268 269 269 270 270 271 271 272 273 274 275 275 276 277 277 278 278 279 280 281 282 283 284 285 285 286 286 287 287 288 288 289 289 289 290 290 290 290 290 290 289 289 289 289
252 253 253 255 255 256 256 257 257 257 258 259 259 259 259 259 259 259 259 259 258 259 260 260 261 261 261 262 262 263 264 264 265 266 266 265 265 265 266 267 267 267 268 269 269 270 270 271 271 272 273 274 275 276 276 277 278 278 279 280 281 281 282 283 283 284 284 285 285 286 287 288 288 288 288 288 288 288 288 288 288 288 288 287 287 287
254 254 254 254 255 255 255 256 257 259 259 260 260 261 261 261 261 261 260 259 259 259 259 260 261 261 261 261 262 262 263 263 264 265 264 264 264 265 265 266 266 267 268 269 270 270 271 272 272 273 273 274 275 275 276 276 277 278 279 279 280 280 281 282 283 283 284 284 285 285 286 286 286 287 287 287 286 286 286 286 286 286 286 286 286 286
256 256 256 255 255 255 255 255 257 258 258 259 261 262 263 263 263 262 261 261 260 260 261 261 262 262 263 262 262 262 262 262 263 263 264 264 265 265 265 265 266 266 266 267 268 269 270 271 271 272 272 273 273 274 275 275 276 277 278 278 279 280 280 281 282 282 283 283 284 284 284 284 284 284 284 284 284 284 284 284 284 284 284 284 285 285
255 256 256 257 257 257 257 256 256 257 258 259 260 260 261 262 263 263 263 263 262 262 263 263 263 263 264 264 264 264 264 264 264 264 265 265 265 266 266 267 267 267 267 267 268 268 269 269 270 271 271 272 273 274 274 275 276 276 277 278 278 279 280 280 281 281 282 282 282 282 282 282 282 282 282 282 282 282 282 282 283 283 284 284 285 286
254 255 256 257 258 258 259 259 259 259 259 259 259 259 259 260 261 262 262 263 263 264 264 265 265 265 266 266 266 266 266 266 266 266 266 267 267 268 268 269 269 270 270 270 270 271 271 271 271 272 273 273 273 274 274 275 276 276 276 277 277 278 278 278 279 279 280 280 280 280 280 280 280 280 280 280 280 281 282 283 284 284 285 286 287 287
254 255 255 256 257 259 260 260 260 260 260 259 259 260 260 260 260 260 261 262 263 264 264 265 265 266 266 266 266 267 267 267 267 267 267 268 269 269 269 270 270 271 272 272 272 272 272 272 272 272 273 273 273 274 274 274 275 275 275 276 276 276 276 276 276 277 277 277 278 278 278 278 278 279 279 280 281 282 283 284 285 286 287 288 288 289
255 256 257 257 258 259 259 260 261 261 260 259 259 259 260 260 261 262 262 263 264 264 264 264 265 265 265 266 266 266 267 267 267 267 267 267 267 268 268 269 269 269 270 270 271 272 272 272 272 272 272 273 273 273 273 274 274 274 274 274 275 275 274 274 274 274 275 275 276 276 277 277 278 279 280 281 282 283 284 285 286 288 289 289 290 290
256 257 257 258 259 260 260 261 261 261 261 260 259 259 259 260 261 262 263 264 265 265 265 265 265 265 266 266 267 267 267 267 267 267 267 267 267 267 267 268 268 269 269 270 270 271 271 272 272 273 273 273 274 274 274 274 274 274 274 274 274 274 274 274 274 274 274 275 275 276 277 278 279 280 281 282 283 284 285 286 288 289 290 290 290 291
257 258 258 259 260 261 262 262 262 262 261 260 259 259 260 261 262 263 264 264 264 265 265 266 266 266 267 268 268 268 268 268 269 268 268 268 268 269 269 269 269 270 270 271 271 272 272 272 273 273 273 274 274 274 275 275 275 275 275 275 275 275 275 275 275 276 276 277 277 278 280 281 282 283 284 285 286 287 288 288 289 289 290 290 290 290
259 260 261 262 263 264 264 264 265 265 264 262 261 260 261 262 263 264 264 264 264 264 265 265 266 267 267 268 268 268 269 269 269 269 269 270 270 270 270 270 270 270 270 271 272 272 273 274 274 274 275 275 275 275 276 276 277 278 278 279 279 279 279 279 280 280 281 282 282 283 284 285 286 287 288 288 288 288 289 289 289 289 289 289 289 289
259 261 262 262 263 264 266 267 268 268 268 268 267 266 265 265 265 266 266 267 267 266 266 266 267 267 267 267 268 268 268 269 270 270 271 271 271 271 271 271 272 273 273 274 275 275 276 277 277 277 278 278 278 279 279 279 280 281 282 282 283 284 284 284 285 285 286 286 286 287 287 287 288 288 288 288 288 288 288 288 288 287 287 288 288 288
259 259 260 261 262 263 265 266 267 268 269 269 269 269 268 269 269 269 270 270 271 271 271 271 271 270 270 270 271 271 271 272 272 273 274 274 274 275 275 276 277 278 279 279 279 280 280 281 281 281 281 282 282 282 282 283 283 283 283 284 284 284 285 285 285 286 286 286 286 287 287 287 287 287 287 287 287 287 287 287 286 286 286 286 286 287
258 259 259 260 261 262 263 265 265 266 267 267 267 267 268 268 269 270 271 271 272 273 273 274 274 275 275 275 276 276 276 276 276 277 277 278 278 278 279 279 280 280 281 281 281 281 281 282 282 282 282 282 282 282 283 283 283 283 283 283 283 283 283 283 283 284 284 284 284 285 285 285 285 285 285 285 285 285 285 285 284 284 284 285 285 285
256 257 259 259 260 261 262 263 264 264 265 265 265 266 266 267 267 268 269 269 270 271 272 272 273 274 274 275 276 276 277 277 277 277 277 278 278 278 278 278 279 279 280 280 281 281 281 281 281 281 281 281 281 281 281 281 281 281 281 281 281 280 281 281 281 281 282 282 282 283 283 283 283 283 284 284 284 284 283 283 283 283 283 284 284 284
255 256 257 258 259 260 260 261 261 262 262 263 264 264 265 265 266 266 267 268 268 268 269 269 270 271 271 272 273 273 274 275 275 275 275 276 276 276 276 277 277 278 278 279 279 280 280 281 281 281 281 281 281 281 281 280 280 280 280 279 279 279 279 279 279 280 280 280 281 281 282 282 282 282 282 283 282 282 282 281 282 282 282 283 283 283
255 256 256 257 258 259 259 260 260 261 262 263 263 264 265 265 265 266 266 267 267 267 268 268 268 269 270 271 271 272 273 273 274 274 274 274 275 275 275 276 276 276 277 277 278 279 279 280 280 280 280 280 280 280 280 280 280 279 279 279 279 279 278 279 279 279 279 280 280 281 281 281 282 282 282 282 282 281 281 281 281 281 282 282 282 283
256 256 257 257 258 258 258 259 260 261 262 263 264 264 265 265 265 265 266 266 267 267 268 268 268 269 270 270 271 272 272 273 273 274 274 274 274 274 275 275 276 276 277 277 278 278 278 279 279 279 279 279 280 280 279 279 279 279 279 279 278 278 278 278 278 279 279 279 280 280 281 281 282 282 281 281 281 281 281 281 281 281 281 282 282 283
Height
10752 10756 10759 10760 10761 10763 10767 10770 10774 10779 10780 10780 10781 10785 10789 10791 10792 10793 10794 10796 10801 10803 10804 10804 10803 10803 10804 10807 10809 10810 10809 10809 10810 10811 10811 10810 10809 10809 10809 10809 10808 10808 10808 10807 10806 10805 10805 10804 10804 10803 10802 10801 10801 10800 10800 10800 10799 10797 10795 10794 10794 10793 10791 10790 10788 10787 10786 10786 10784 10782 10780 10778 10777 10775 10774 10773 10773 10773 10771 10768 10766 10764 10763 10762 10761 10761
10747 10751 10752 10753 10757 10760 10764 10767 10769 10772 10773 10773 10777 10781 10784 10785 10786 10788 10790 10792 10796 10799 10799 10799 10800 10799 10800 10803 10805 10806 10804 10804 10806 10806 10806 10806 10805 10805 10805 10805 10805 10804 10805 10805 10803 10802 10801 10801 10801 10801 10799 10798 10797 10797 10796 10796 10795 10794 10792 10791 10790 10789 10788 10786 10784 10783 10782 10781 10780 10778 10776 10775 10773 10771 10769 10768 10767 10767 10766 10765 10762 10760 10758 10757 10756 10755
10741 10743 10745 10749 10752 10755 10758 10761 10764 10766 10767 10769 10773 10775 10777 10779 10782 10784 10787 10789 10791 10793 10794 10797 10798 10795 10796 10799 10801 10803 10801 10799 10801 10801 10801 10801 10801 10801 10801 10801 10800 10801 10801 10801 10801 10799 10797 10797 10798 10797 10796 10795 10794 10793 10792 10792 10791 10790 10789 10787 10786 10785 10784 10782 10780 10779 10777 10776 10775 10773 10772 10770 10769 10767 10765 10763 10761 10760 10759 10759 10758 10757 10755 10753 10751 10750
10735 10736 10740 10744 10747 10749 10753 10756 10758 10760 10762 10765 10767 10768 10769 10773 10778 10780 10782 10783 10784 10788 10790 10794 10795 10791 10791 10795 10796 10798 10798 10795 10796 10796 10796 10796 10796 10796 10796 10796 10796 10796 10797 10797 10797 10796 10794 10793 10794 10793 10792 10791 10790 10790 10789 10788 10787 10786 10785 10784 10782 10781 10780 10778 10776 10775 10773 10772 10770 10768 10767 10765 10764 10763 10761 10760 10758 10756 10754 10753 10753 10752 10750 10749 10746 10745
10729 10732 10736 10739 10740 10743 10747 10750 10751 10753 10756 10758 10759 10761 10763 10767 10773 10777 10776 10776 10779 10785 10787 10788 10791 10788 10787 10791 10791 10792 10794 10792 10792 10792 10790 10791 10791 10791 10791 10790 10791 10792 10792 10793 10793 10791 10790 10790 10790 10789 10788 10787 10787 10786 10785 10784 10783 10782 10781 10779 10778 10777 10776 10774 10773 10771 10769 10768 10766 10764 10762 10760 10758 10757 10757 10755 10754 10752 10750 10748 10747 10747 10746 10744 10741 10739
10723 10726 10730 10732 10734 10736 10739 10742 10743 10746 10750 10752 10754 10756 10759 10762 10768 10772 10770 10770 10775 10781 10782 10783 10788 10786 10782 10786 10786 10786 10790 10788 10788 10787 10785 10786 10786 10786 10786 10785 10786 10787 10787 10788 10788 10787 10786 10786 10786 10785 10784 10783 10782 10782 10781 10780 10779 10778 10777 10776 10774 10773 10772 10771 10769 10767 10766 10764 10762 10760 10758 10756 10754 10752 10751 10750 10749 10748 10746 10744 10742 10742 10741 10739 10737 10734
10717 10720 10723 10725 10727 10728 10732 10735 10737 10741 10744 10747 10749 10751 10754 10756 10760 10764 10765 10766 10771 10775 10776 10778 10784 10783 10778 10779 10780 10782 10785 10784 10783 10782 10779 10781 10781 10781 10781 10780 10781 10782 10782 10783 10783 10782 10781 10781 10781 10781 10781 10779 10778 10777 10776 10775 10775 10774 10773 10772 10770 10768 10767 10766 10765 10763 10762 10760 10759 10757 10754 10751 10749 10748 10746 10745 10744 10743 10741 10740 10738 10737 10736 10735 10733 10730
10711 10713 10716 10717 10719 10722 10727 10730 10732 10735 10738 10742 10743 10744 10746 10749 10753 10757 10759 10761 10766 10769 10771 10773 10778 10781 10776 10771 10773 10779 10781 10779 10777 10776 10776 10776 10776 10776 10776 10775 10775 10776 10777 10778 10778 10778 10777 10776 10776 10776 10776 10775 10774 10773 10771 10770 10770 10769 10769 10768 10766 10764 10762 10761 10759 10758 10757 10756 10754 10752 10750 10747 10745 10743 10741 10740 10738 10738 10737 10735 10733 10732 10731 10730 10728 10725
10704 10707 10709 10711 10713 10717 10721 10723 10726 10729 10731 10735 10736 10737 10739 10741 10746 10750 10753 10756 10759 10763 10768 10767 10770 10778 10776 10765 10766 10775 10776 10772 10770 10770 10772 10772 10771 10771 10772 10770 10769 10770 10771 10772 10772 10773 10772 10771 10771 10771 10771 10770 10769 10768 10767 10766 10765 10765 10764 10763 10762 10760 10758 10756 10754 10753 10752 10751 10749 10748 10746 10743 10741 10739 10737 10735 10733 10732 10731 10730 10728 10727 10725 10724 10723 10721
10698 10701 10703 10705 10707 10710 10713 10716 10720 10722 10725 10728 10729 10731 10732 10734 10739 10743 10748 10750 10752 10759 10764 10761 10761 10772 10776 10764 10760 10768 10770 10766 10763 10764 10766 10766 10765 10767 10767 10766 10764 10763 10764 10765 10766 10767 10768 10768 10767 10766 10764 10763 10763 10763 10763 10762 10762 10761 10760 10758 10757 10755 10753 10751 10749 10749 10747 10746 10745 10743 10741 10739 10737 10735 10733 10731 10729 10727 10726 10724 10723 10722 10720 10718 10717 10715
10692 10694 10697 10699 10700 10704 10706 10709 10712 10714 10718 10720 10722 10725 10725 10727 10730 10734 10741 10743 10746 10756 10759 10754 10753 10764 10775 10768 10756 10757 10761 10760 10758 10758 10759 10759 10760 10761 10761 10760 10760 10759 10758 10757 10759 10760 10762 10763 10762 10761 10759 10757 10757 10756 10757 10758 10757 10757 10756 10754 10752 10749 10747 10746 10744 10743 10742 10741 10739 10737 10735 10733 10732 10730 10728 10727 10724 10722 10720 10718 10717 10716 10715 10713 10711 10709
10684 10686 10689 10692 10693 10695 10697 10701 10704 10706 10710 10712 10714 10717 10718 10720 10722 10726 10733 10736 10743 10751 10751 10748 10747 10758 10774 10769 10752 10749 10751 10753 10753 10751 10752 10754 10753 10754 10754 10754 10754 10754 10754 10753 10753 10754 10755 10756 10756 10755 10753 10751 10750 10750 10751 10752 10752 10752 10751 10749 10747 10744 10742 10740 10739 10738 10736 10735 10734 10732 10730 10728 10726 10725 10723 10721 10719 10717 10715 10713 10711 10710 10709 10707 10706 10704
10674 10677 10680 10684 10687 10689 10690 10693 10696 10699 10702 10703 10706 10708 10709 10712 10714 10719 10725 10730 10738 10744 10744 10743 10742 10753 10769 10764 10752 10747 10740 10741 10746 10745 10746 10747 10746 10746 10747 10747 10746 10747 10748 10749 10749 10748 10748 10749 10749 10748 10747 10745 10743 10743 10745 10746 10746 10746 10745 10744 10742 10739 10737 10735 10733 10732 10730 10729 10728 10726 10724 10722 10720 10719 10717 10716 10714 10712 10710 10708 10706 10703 10702 10701 10700 10698
10669 10671 10675 10679 10682 10683 10684 10685 10688 10690 10691 10694 10697 10699 10702 10706 10710 10715 10719 10721 10729 10734 10736 10737 10737 10749 10761 10757 10753 10748 10734 10729 10735 10738 10739 10740 10740 10740 10739 10738 10739 10740 10742 10744 10744 10743 10742 10742 10742 10741 10740 10738 10737 10737 10738 10739 10739 10739 10739 10738 10736 10734 10731 10729 10727 10725 10724 10722 10721 10720 10718 10716 10714 10712 10710 10709 10707 10706 10704 10703 10701 10698 10696 10695 10693 10692
10664 10666 10670 10671 10672 10674 10676 10676 10677 10678 10682 10687 10690 10692 10697 10701 10704 10708 10708 10711 10717 10723 10727 10731 10735 10746 10752 10749 10749 10748 10736 10725 10724 10728 10731 10731 10730 10731 10730 10730 10730 10733 10735 10737 10736 10736 10736 10736 10736 10735 10734 10732 10731 10731 10731 10731 10732 10732 10732 10731 10730 10728 10725 10723 10721 10719 10717 10716 10715 10714 10712 10710 10707 10705 10703 10701 10700 10699 10697 10696 10695 10693 10691 10688 10687 10685
10655 10658 10660 10660 10662 10665 10665 10665 10667 10670 10675 10680 10682 10687 10693 10694 10694 10695 10698 10703 10707 10712 10720 10727 10734 10742 10743 10741 10742 10743 10736 10727 10722 10723 10722 10719 10719 10720 10721 10722 10723 10725 10726 10726 10726 10727 10728 10729 10729 10728 10727 10726 10725 10724 10724 10724 10725 10725 10725 10724 10723 10722 10719 10716 10714 10712 10711 10710 10708 10706 10704 10702 10700 10697 10696 10694 10692 10691 10690 10690 10689 10687 10685 10683 10681 10678
10644 10648 10649 10650 10654 10656 10655 10657 10660 10664 10669 10671 10676 10683 10686 10684 10683 10685 10691 10698 10699 10704 10714 10721 10729 10735 10733 10735 10736 10733 10731 10728 10723 10720 10715 10711 10711 10711 10713 10715 10716 10716 10715 10714 10715 10717 10719 10721 10721 10721 10721 10720 10719 10718 10718 10718 10717 10717 10717 10716 10716 10715 10712 10709 10707 10706 10705 10704 10701 10699 10697 10694 10692 10690 10688 10686 10684 10683 10683 10683 10683 10682 10679 10677 10674 10672
10633 10636 10640 10644 10646 10648 10648 10649 10653 10657 10661 10665 10672 10675 10674 10674 10677 10678 10682 10689 10691 10696 10706 10713 10719 10724 10725 10730 10730 10725 10724 10724 10720 10717 10711 10706 10706 10706 10706 10707 10707 10706 10705 10704 10704 10706 10708 10710 10711 10712 10713 10713 10712 10711 10711 10711 10710 10709 10708 10707 10707 10707 10704 10702 10700 10700 10699 10697 10694 10692 10690 10687 10685 10682 10679 10677 10675 10674 10675 10677 10677 10676 10673 10670 10667 10665
10623 10626 10631 10636 10638 10639 10640 10641 10647 10653 10655 10659 10663 10664 10664 10667 10671 10670 10672 10679 10682 10686 10697 10706 10709 10714 10721 10726 10724 10718 10716 10716 10714 10712 10708 10705 10704 10702 10700 10697 10696 10695 10695 10695 10695 10696 10698 10700 10701 10702 10703 10704 10703 10702 10702 10702 10702 10701 10699 10698 10698 10698 10697 10695 10694 10694 10692 10690 10687 10685 10683 10680 10678 10674 10670 10668 10666 10666 10668 10670 10670 10668 10666 10663 10660 10657
10613 10616 10622 10628 10631 10630 10632 10637 10644 10648 10647 10648 10651 10653 10656 10659 10661 10663 10664 10669 10673 10676 10687 10697 10702 10711 10717 10715 10714 10711 10708 10708 10707 10705 10704 10703 10702 10699 10694 10690 10687 10686 10685 10685 10685 10687 10689 10690 10690 10692 10693 10694 10695 10695 10694 10693 10692 10692 10690 10689 10690 10690 10690 10689 10689 10688 10685 10682 10680 10678 10676 10673 10670 10666 10662 10658 10657 10658 10661 10661 10661 10659 10658 10655 10652 10649
10601 10608 10615 10620 10622 10624 10630 10636 10638 10635 10634 10638 10642 10645 10650 10652 10653 10656 10657 10660 10664 10667 10676 10686 10694 10708 10710 10702 10703 10704 10701 10701 10700 10698 10698 10698 10697 10694 10690 10686 10681 10678 10676 10676 10678 10680 10681 10681 10680 10682 10684 10685 10685 10686 10685 10685 10684 10683 10683 10682 10682 10683 10684 10683 10683 10682 10678 10675 10673 10670 10669 10666 10663 10659 10654 10650 10649 10650 10652 10651 10651 10651 10649 10646 10643 10640
10593 10600 10606 10610 10615 10622 10626 10626 10623 10622 10624 10632 10636 10639 10643 10644 10644 10645 10648 10653 10655 10656 10664 10671 10683 10703 10704 10692 10693 10695 10693 10693 10692 10690 10689 10689 10689 10687 10684 10680 10676 10674 10672 10671 10672 10672 10671 10671 10671 10673 10675 10676 10677 10677 10676 10676 10675 10675 10675 10675 10676 10677 10676 10675 10675 10673 10671 10668 10666 10664 10662 10660 10656 10652 10647 10642 10641 10641 10642 10641 10641 10642 10641 10637 10634 10631
10584 10588 10596 10603 10610 10616 10616 10613 10614 10617 10619 10623 10628 10634 10636 10634 10635 10636 10638 10642 10641 10644 10654 10655 10669 10698 10699 10683 10682 10685 10684 10684 10682 10681 10680 10679 10680 10678 10676 10674 10672 10671 10671 10669 10668 10664 10661 10661 10661 10662 10663 10664 10665 10666 10666 10666 10666 10666 10667 10668 10668 10668 10666 10665 10665 10664 10662 10661 10659 10658 10656 10652 10649 10645 10640 10634 10632 10631 10632 10633 10633 10633 10631 10628 10625 10623
10575 10579 10588 10596 10602 10606 10606 10607 10610 10613 10613 10615 10621 10626 10626 10626 10628 10624 10623 10628 10627 10634 10646 10643 10656 10690 10693 10674 10673 10675 10674 10674 10670 10669 10671 10670 10670 10669 10668 10668 10668 10668 10668 10665 10662 10658 10655 10654 10653 10654 10654 10653 10654 10654 10655 10656 10657 10657 10659 10659 10659 10658 10656 10656 10656 10654 10653 10653 10651 10650 10648 10644 10640 10637 10632 10627 10623 10621 10622 10624 10625 10624 10622 10619 10617 10614
10564 10569 10576 10583 10589 10595 10600 10603 10606 10608 10608 10609 10612 10613 10614 10615 10615 10612 10613 10615 10615 10626 10638 10634 10645 10677 10683 10668 10665 10666 10664 10663 10659 10657 10660 10660 10660 10661 10661 10661 10661 10661 10659 10656 10653 10650 10648 10648 10647 10647 10647 10646 10646 10646 10647 10648 10649 10649 10650 10650 10650 10649 10647 10646 10646 10645 10645 10645 10644 10641 10638 10634 10630 10627 10623 10619 10614 10612 10613 10615 10614 10612 10611 10610 10607 10604
10554 10558 10563 10571 10578 10587 10595 10596 10597 10599 10598 10599 10602 10603 10603 10602 10600 10602 10603 10602 10609 10624 10629 10625 10636 10661 10669 10662 10659 10657 10653 10650 10649 10649 10648 10647 10649 10652 10652 10651 10650 10649 10648 10647 10645 10643 10642 10640 10638 10638 10638 10639 10639 10639 10639 10640 10640 10640 10641 10641 10640 10640 10639 10638 10637 10637 10637 10637 10635 10632 10629 10624 10620 10616 10613 10608 10605 10604 10605 10605 10603 10602 10600 10599 10597 10594
10544 10548 10555 10562 10569 10577 10583 10581 10584 10589 10587 10589 10595 10595 10593 10590 10588 10590 10591 10595 10608 10615 10614 10618 10627 10640 10655 10657 10651 10646 10640 10635 10639 10642 10639 10638 10640 10640 10639 10637 10636 10636 10637 10638 10637 10636 10634 10632 10630 10628 10629 10630 10631 10631 10632 10632 10632 10631 10630 10630 10630 10629 10630 10629 10627 10628 10627 10626 10625 10623 10619 10615 10610 10607 10603 10598 10596 10596 10596 10594 10593 10591 10589 10589 10586 10582
10535 10539 10545 10552 10557 10563 10566 10566 10574 10580 10578 10579 10584 10583 10581 10579 10577 10578 10582 10592 10600 10596 10600 10615 10616 10618 10639 10651 10645 10638 10629 10621 10625 10629 10630 10631 10629 10626 10624 10623 10624 10626 10627 10627 10626 10625 10623 10622 10622 10622 10621 10621 10621 10622 10622 10622 10623 10622 10622 10622 10620 10619 10620 10617 10615 10616 10615 10614 10614 10611 10608 10605 10601 10598 10593 10589 10587 10586 10586 10584 10582 10580 10578 10577 10575 10571
10525 10527 10533 10538 10542 10548 10551 10553 10562 10568 10567 10567 10571 10572 10571 10569 10569 10574 10579 10587 10587 10581 10591 10608 10603 10602 10622 10636 10635 10630 10618 10608 10610 10613 10617 10621 10619 10614 10613 10612 10613 10614 10614 10614 10613 10611 10611 10612 10615 10616 10615 10614 10613 10611 10610 10611 10612 10612 10613 10613 10611 10609 10608 10605 10604 10605 10603 10602 10601 10598 10596 10595 10591 10587 10584 10580 10578 10577 10575 10574 10571 10568 10566 10565 10563 10559
10512 10516 10523 10524 10527 10533 10539 10543 10549 10554 10555 10556 10559 10561 10559 10559 10565 10571 10576 10580 10576 10570 10579 10590 10587 10591 10607 10615 10616 10617 10608 10598 10597 10599 10604 10609 10609 10604 10601 10599 10601 10602 10603 10603 10601 10600 10602 10605 10607 10607 10607 10606 10605 10602 10601 10600 10600 10600 10601 10601 10600 10599 10598 10595 10596 10596 10594 10591 10589 10585 10584 10584 10580 10577 10574 10571 10568 10567 10565 10563 10560 10557 10554 10552 10550 10547
10502 10507 10513 10513 10513 10521 10531 10534 10535 10538 10541 10542 10544 10547 10551 10556 10563 10567 10569 10568 10561 10558 10564 10568 10569 10584 10598 10592 10588 10597 10599 10590 10586 10589 10593 10597 10596 10592 10588 10587 10590 10593 10593 10592 10591 10592 10594 10596 10597 10597 10595 10595 10595 10594 10593 10592 10590 10588 10588 10586 10585 10584 10584 10584 10585 10585 10583 10581 10578 10574 10573 10572 10569 10566 10563 10560 10557 10555 10553 10550 10548 10545 10542 10540 10537 10534
10493 10496 10501 10503 10501 10510 10523 10522 10519 10520 10519 10519 10529 10544 10552 10555 10556 10556 10554 10550 10546 10548 10552 10551 10555 10573 10583 10569 10563 10578 10588 10581 10577 10578 10581 10585 10584 10578 10576 10579 10582 10584 10583 10581 10581 10583 10585 10585 10585 10584 10583 10583 10584 10584 10584 10582 10581 10579 10576 10574 10572 10569 10568 10569 10569 10569 10569 10568 10565 10563 10562 10559 10557 10555 10551 10548 10545 10542 10540 10538 10536 10533 10530 10528 10525 10522
10485 10486 10490 10492 10490 10501 10511 10507 10504 10501 10493 10501 10528 10545 10544 10541 10541 10543 10541 10540 10541 10539 10536 10536 10542 10553 10557 10553 10554 10565 10569 10566 10565 10568 10572 10576 10573 10564 10564 10572 10576 10574 10571 10570 10573 10575 10575 10573 10572 10571 10570 10569 10570 10570 10570 10570 10569 10568 10566 10563 10561 10559 10557 10556 10555 10554 10554 10552 10550 10549 10548 10546 10545 10542 10538 10535 10532 10529 10527 10525 10523 10521 10518 10515 10513 10510
10475 10476 10479 10479 10480 10490 10496 10491 10487 10479 10477 10500 10526 10529 10524 10526 10528 10528 10531 10535 10534 10525 10518 10520 10527 10533 10537 10541 10545 10548 10551 10552 10555 10562 10567 10563 10556 10553 10556 10561 10564 10562 10559 10561 10563 10563 10562 10560 10559 10559 10558 10556 10557 10557 10557 10556 10556 10556 10555 10553 10550 10548 10547 10545 10545 10543 10541 10539 10537 10535 10534 10532 10531 10529 10526 10523 10520 10517 10515 10513 10511 10509 10506 10504 10501 10499
10463 10466 10468 10468 10470 10477 10480 10474 10467 10464 10477 10502 10511 10507 10510 10515 10513 10511 10517 10522 10519 10511 10505 10505 10510 10518 10523 10528 10532 10535 10540 10544 10546 10553 10554 10545 10540 10544 10547 10547 10547 10547 10548 10549 10549 10549 10548 10547 10548 10548 10547 10546 10545 10545 10545 10544 10543 10543 10543 10541 10538 10536 10534 10533 10533 10531 10529 10527 10525 10523 10521 10519 10517 10515 10513 10511 10508 10506 10503 10501 10500 10498 10495 10493 10490 10488
10450 10453 10455 10456 10456 10459 10462 10460 10456 10460 10476 10490 10493 10496 10501 10499 10496 10495 10497 10501 10500 10494 10491 10492 10497 10505 10510 10514 10520 10524 10528 10532 10535 10537 10534 10528 10528 10532 10535 10536 10535 10534 10536 10536 10535 10537 10536 10534 10536 10537 10536 10536 10534 10533 10532 10532 10531 10531 10531 10529 10527 10524 10522 10520 10519 10517 10515 10514 10513 10511 10509 10507 10505 10503 10501 10499 10497 10494 10491 10489 10488 10486 10484 10482 10480 10477
10435 10437 10439 10438 10438 10442 10447 10450 10451 10452 10463 10479 10490 10492 10487 10480 10479 10474 10471 10478 10483 10479 10479 10483 10487 10491 10494 10498 10504 10510 10515 10519 10524 10523 10515 10513 10517 10519 10519 10523 10522 10521 10524 10524 10523 10525 10525 10523 10523 10523 10523 10524 10522 10520 10520 10520 10519 10519 10519 10517 10514 10512 10510 10509 10506 10503 10501 10501 10499 10498 10496 10495 10493 10491 10489 10487 10485 10482 10480 10478 10477 10475 10473 10471 10468 10465
10421 10422 10422 10421 10423 10428 10431 10436 10441 10442 10455 10478 10489 10481 10470 10465 10462 10454 10449 10458 10466 10466 10467 10472 10473 10475 10480 10483 10486 10493 10498 10501 10509 10512 10502 10497 10503 10506 10505 10506 10506 10506 10509 10510 10511 10513 10513 10512 10511 10510 10510 10511 10510 10508 10506 10507 10507 10506 10505 10503 10501 10500 10499 10496 10493 10490 10488 10488 10486 10484 10483 10482 10480 10479 10477 10475 10473 10471 10469 10466 10464 10463 10461 10458 10456 10453
10409 10410 10410 10407 10410 10416 10419 10422 10427 10432 10449 10472 10476 10464 10457 10454 10447 10438 10432 10438 10450 10456 10457 10457 10458 10461 10465 10468 10470 10475 10479 10482 10491 10497 10488 10482 10489 10493 10492 10492 10492 10490 10491 10493 10494 10496 10497 10497 10497 10496 10495 10495 10495 10494 10492 10492 10493 10492 10491 10489 10488 10488 10487 10484 10481 10479 10476 10475 10473 10471 10470 10469 10468 10466 10464 10463 10461 10459 10457 10454 10451 10449 10447 10445 10443 10440
10397 10398 10399 10397 10400 10407 10408 10406 10410 10420 10439 10458 10458 10449 10445 10440 10429 10422 10419 10428 10442 10447 10445 10445 10446 10446 10448 10451 10454 10458 10461 10465 10474 10481 10476 10472 10475 10478 10478 10479 10479 10477 10475 10475 10476 10477 10479 10480 10480 10481 10480 10478 10479 10479 10477 10477 10479 10478 10476 10475 10474 10474 10473 10471 10469 10467 10465 10463 10461 10459 10458 10456 10455 10454 10451 10450 10448 10446 10444 10441 10438 10436 10433 10431 10428 10426
10384 10386 10387 10388 10391 10395 10394 10393 10397 10408 10426 10441 10442 10438 10435 10425 10413 10407 10411 10422 10429 10430 10431 10433 10432 10430 10432 10434 10438 10443 10446 10449 10457 10465 10465 10462 10462 10464 10465 10465 10466 10465 10463 10461 10461 10460 10462 10464 10464 10464 10465 10464 10464 10464 10462 10462 10464 10464 10462 10461 10461 10460 10458 10457 10457 10455 10453 10452 10449 10447 10445 10444 10442 10440 10438 10437 10435 10433 10430 10427 10424 10422 10419 10416 10413 10411
10373 10373 10373 10376 10380 10382 10383 10382 10383 10394 10414 10427 10427 10425 10421 10411 10400 10399 10405 10411 10412 10413 10416 10418 10416 10416 10417 10419 10423 10428 10432 10434 10439 10445 10449 10450 10450 10450 10451 10451 10452 10452 10450 10448 10448 10447 10447 10450 10450 10448 10448 10448 10448 10448 10447 10446 10447 10448 10448 10448 10447 10445 10444 10444 10443 10442 10441 10440 10437 10435 10432 10430 10428 10426 10424 10422 10420 10417 10415 10412 10410 10407 10404 10401 10398 10396
10359 10358 10359 10366 10371 10372 10370 10368 10369 10383 10403 10413 10410 10406 10403 10397 10393 10393 10395 10397 10398 10400 10402 10403 10403 10404 10404 10406 10409 10413 10417 10420 10422 10425 10430 10434 10434 10434 10436 10437 10438 10438 10437 10436 10435 10434 10434 10436 10438 10436 10434 10433 10433 10433 10431 10430 10431 10431 10431 10432 10431 10430 10429 10429 10427 10426 10426 10424 10423 10421 10418 10415 10413 10410 10408 10407 10404 10401 10399 10396 10394 10391 10388 10385 10383 10381
10346 10348 10352 10358 10360 10356 10354 10356 10361 10371 10384 10391 10393 10393 10390 10386 10384 10381 10379 10381 10384 10387 10390 10392 10392 10391 10392 10394 10396 10399 10403 10407 10408 10410 10413 10417 10419 10421 10422 10422 10423 10424 10424 10423 10422 10421 10421 10422 10424 10424 10422 10420 10419 10419 10417 10416 10416 10416 10415 10414 10413 10412 10412 10411 10410 10409 10408 10407 10405 10404 10402 10399 10397 10394 10393 10390 10388 10386 10383 10381 10378 10374 10371 10369 10367 10365
10340 10344 10343 10344 10344 10341 10342 10346 10352 10357 10363 10370 10376 10377 10375 10371 10369 10366 10365 10367 10369 10372 10376 10380 10380 10379 10378 10379 10382 10386 10391 10393 10395 10398 10399 10400 10404 10406 10406 10406 10407 10406 10407 10408 10407 10406 10406 10407 10409 10410 10409 10406 10404 10403 10402 10401 10401 10401 10400 10398 10396 10395 10394 10393 10393 10392 10391 10390 10389 10387 10385 10384 10381 10379 10377 10374 10372 10370 10367 10364 10361 10358 10355 10353 10351 10349
10329 10332 10330 10331 10333 10333 10334 10339 10343 10345 10347 10351 10355 10357 10358 10356 10352 10351 10352 10353 10355 10358 10360 10363 10365 10365 10363 10363 10367 10371 10375 10378 10380 10382 10383 10384 10387 10388 10388 10389 10389 10388 10389 10391 10391 10390 10390 10392 10392 10393 10394 10393 10390 10388 10388 10386 10386 10386 10385 10383 10382 10381 10379 10378 10377 10376 10375 10374 10373 10371 10370 10368 10366 10364 10361 10358 10355 10353 10349 10346 10343 10340 10338 10337 10336 10334
10314 10316 10317 10321 10324 10324 10326 10331 10335 10333 10332 10334 10337 10340 10342 10342 10339 10338 10339 10339 10342 10345 10346 10347 10349 10351 10350 10350 10350 10353 10357 10360 10363 10364 10367 10369 10371 10372 10373 10373 10373 10373 10373 10373 10374 10375 10375 10376 10376 10377 10379 10379 10377 10375 10374 10373 10371 10370 10369 10368 10367 10366 10365 10364 10363 10361 10360 10359 10358 10357 10355 10352 10350 10348 10345 10343 10339 10335 10332 10328 10324 10322 10321 10321 10320 10319
10303 10303 10305 10309 10313 10316 10318 10320 10322 10320 10317 10317 10320 10324 10328 10329 10328 10326 10326 10327 10330 10333 10335 10336 10336 10338 10339 10339 10338 10337 10340 10343 10345 10348 10351 10354 10355 10357 10358 10359 10360 10361 10360 10358 10357 10357 10358 10360 10360 10361 10363 10363 10362 10361 10360 10359 10357 10355 10354 10353 10352 10351 10350 10349 10347 10346 10345 10343 10342 10341 10339 10337 10334 10332 10329 10326 10322 10318 10314 10310 10306 10304 10305 10304 10304 10303
10293 10293 10296 10298 10299 10303 10306 10307 10306 10303 10301 10302 10306 10311 10313 10313 10313 10312 10313 10315 10318 10320 10323 10325 10325 10325 10326 10328 10327 10325 10326 10328 10330 10332 10336 10341 10342 10341 10342 10343 10345 10347 10348 10346 10343 10341 10341 10342 10342 10344 10346 10345 10344 10344 10344 10343 10341 10339 10337 10336 10335 10334 10334 10333 10331 10329 10328 10326 10325 10323 10321 10319 10317 10314 10312 10308 10304 10299 10294 10291 10289 10288 10288 10287 10286 10285
10282 10283 10286 10286 10283 10286 10291 10291 10287 10285 10287 10291 10294 10297 10297 10296 10298 10299 10300 10300 10301 10303 10307 10310 10312 10312 10312 10312 10312 10312 10312 10314 10315 10315 10318 10323 10326 10325 10325 10326 10328 10330 10331 10330 10328 10327 10326 10323 10323 10325 10326 10325 10324 10324 10325 10323 10321 10320 10319 10318 10317 10316 10315 10314 10313 10312 10310 10308 10306 10304 10303 10301 10299 10296 10292 10287 10282 10278 10274 10272 10271 10271 10271 10270 10269 10267
10269 10269 10269 10267 10266 10269 10273 10274 10271 10271 10275 10281 10282 10280 10279 10280 10283 10285 10285 10284 10285 10286 10288 10292 10295 10297 10298 10297 10295 10294 10295 10298 10300 10299 10300 10304 10306 10307 10307 10308 10311 10312 10313 10312 10310 10310 10309 10306 10305 10306 10306 10305 10304 10304 10304 10304 10302 10300 10300 10299 10298 10297 10296 10295 10295 10294 10292 10290 10288 10286 10285 10283 10281 10276 10271 10266 10262 10259 10257 10254 10253 10253 10253 10252 10251 10250